Weather in Svetloye

Russia / Chelyabinsk Oblast     53°41′36″N   60°22′11″E
В апреле 2022 года жителям России запретили посещать сайт meteo.paraplan.net по решению Генеральной прокуратуры. Аудитория сайта уменьшилась в 10 раз. Владельцы сайта не видят смысла в поддержке погодного сервера в таких условиях. Сайт будет закрыт в октябре.
temp.,
°C
wind,
m/s
gust,
m/s
humid.,
%
clouds,
%
prec.,
mm/h
press.,
hPa
HPBL,
m
30 september, fri
fri3023:000se5898100 1.3 1029391
02:00−1se5896100 0.5 1029447
05:00−1se5994100 0.8 1030431
08:000se597999 0.0 1032580
11:00+1se577499 0.1 1032708
14:00+3sse4665100 0.0 1033935
17:00+4sse3559100 0.0 1033606
20:00+3sse226382 0.0 103423
1 october, sat
sat123:00+1se366083 0.0 1035103
02:00+1se495790 0.0 1035275
05:00+1sse376399 0.0 1035196
08:00+1s2565100 0.0 1036193
11:00+4s5755100 0.0 1035758
14:00+6ssw5649100 0.0 1034960
17:00+5ssw4651100 0.0 1034590
20:00+4ssw3754100 0.0 1034336
2 october, sun
sun223:00+4ssw3859100 0.0 1033313
02:00+4ssw3958100 0.0 1032341
05:00+4ssw4105767 0.0 1032317
08:00+4ssw41062100 0.0 1031323
11:00+7ssw684498 0.0 1031534
14:00+7ssw5845100 0.0 1030526
17:00+7s5939100 0.0 1030458
20:00+6ssw494193 0.0 1029336
3 october, mon
mon323:00+4ssw495361 0.0 1029177
02:00+4ssw495199 0.0 1028193
05:00+6ssw394787 0.0 1028219
08:00+6ssw384693 0.0 1028215
11:00+10ssw573282 0.0 1028434
14:00+12ssw563026 0.0 1028666
17:00+12ssw45335 0.0 1028523
20:00+7sw35485 0.0 103081
4 october, tue
tue423:00+6sw35535 0.0 103175
02:00+5sw35565 0.0 103169
05:00+4sw34595 0.0 103262
08:00+5sw34576 0.0 103374
11:00+11ssw33355 0.0 1033394
14:00+15s34291 0.0 1033875
17:00+14s33305 0.0 1033831
20:00+8s33332 0.0 103530